Presure
213 196 211 195 195 195 200 194 195 190 193 196 196 192 183 184 200 206 201 214 203 221 207 211 203 209 195 198 189 193 199 195 186 218 212 206 192 214 196 209 229 253 285 261 256 259 255
209 199 196 183 190 179 192 188 158 193 187 182 191 185 200 200 182 210 158 160 208 193 208 193 208 206 200 195 190 197 194 206 204 201 199 188 197 210 192 182 223 244 280 256 249 252 248
203 205 193 185 175 179 189 190 186 196 195 181 192 200 185 201 190 196 200 178 178 202 189 162 208 193 187 193 196 199 198 196 194 192 176 182 218 204 203 213 218 245 289 255 251 234 260
205 204 193 197 194 186 190 169 185 198 198 180 183 179 196 142 199 195 204 163 165 176 173 200 187 190 206 196 164 194 190 169 191 198 194 197 204 195 206 212 223 246 266 245 238 236 233
203 191 198 195 185 194 203 194 204 187 194 200 191 182 193 179 198 192 167 162 174 194 193 187 186 187 177 195 196 184 205 206 194 194 202 186 197 192 194 206 205 252 230 247 240 233 233
203 209 198 196 197 163 190 193 191 194 202 183 195 180 168 201 180 177 177 199 184 190 187 164 184 197 179 169 205 203 200 199 206 192 199 203 202 195 212 204 213 253 235 238 236 226 220
219 207 211 200 196 196 196 186 192 193 190 195 195 188 204 174 205 165 180 197 163 198 174 192 188 191 187 175 184 177 193 178 178 200 187 180 205 201 197 208 205 207 241 228 249 239 228
217 221 212 202 204 214 200 202 198 194 198 169 200 194 171 191 181 184 194 147 192 197 180 182 166 190 185 182 168 172 198 192 188 185 192 203 204 197 200 203 217 208 257 221 245 248 229
229 229 236 220 218 216 229 204 204 206 202 194 203 195 201 177 172 192 195 140 166 172 179 182 192 166 170 165 188 175 189 170 187 194 197 203 203 199 193 208 203 190 231 240 235 237 234
221 217 222 201 224 205 227 219 228 198 211 208 202 196 202 203 195 175 156 193 153 193 183 194 142 172 198 153 174 181 171 164 174 188 177 195 201 191 210 195 207 190 209 265 232 232 241
242 244 228 224 227 226 219 227 223 222 222 215 209 201 204 197 172 159 163 181 200 156 172 187 179 168 179 154 167 168 168 182 179 173 196 194 202 190 186 163 212 180 196 239 232 210 235
237 240 230 226 233 229 224 214 222 216 219 220 214 212 198 214 205 206 190 208 169 178 172 163 171 150 148 164 172 168 178 164 189 176 182 194 189 187 199 197 185 187 208 205 274 215 209
242 245 245 241 228 231 230 229 223 222 226 206 218 219 217 208 199 191 181 180 178 186 192 165 178 183 178 177 169 192 178 172 181 184 184 177 179 183 178 194 200 197 181 197 214 270 250
263 259 272 279 281 277 267 247 249 235 240 240 222 197 211 205 220 199 203 205 197 160 186 187 178 191 193 187 176 151 186 156 179 175 187 181 171 183 198 191 201 203 184 182 201 215 268
270 269 269 266 270 274 264 257 263 273 276 262 245 244 242 221 213 202 222 212 198 190 194 192 172 173 175 190 176 196 196 180 163 166 176 170 183 173 195 180 207 184 196 198 187 207 219
356 350 348 347 294 304 336 277 261 269 272 261 265 274 242 239 217 224 225 215 205 207 191 186 185 187 184 186 189 180 197 155 169 182 182 176 181 192 186 188 207 193 183 211 185 189 205
315 310 308 307 308 310 312 315 319 330 336 326 341 312 277 264 252 226 241 235 218 198 211 193 186 186 192 196 148 201 185 205 158 181 177 188 190 186 185 181 186 198 184 178 207 186 187
283 288 285 288 291 283 284 303 306 297 299 318 313 331 343 360 296 267 276 267 216 114 212 219 205 196 195 197 200 212 194 202 174 184 197 194 185 173 192 184 194 184 197 172 198 207 190
287 287 284 284 285 306 292 288 303 295 291 289 312 311 316 310 340 343 347 277 262 270 263 131 214 216 214 217 204 220 208 203 189 186 168 197 211 170 177 189 192 182 199 182 180 209 187
286 294 278 298 284 295 294 289 276 271 268 290 299 315 301 316 319 272 231 449 232 259 261 259 252 220 213 219 216 215 210 199 190 165 173 187 193 174 185 180 187 195 174 182 178 197 205
285 292 288 283 287 283 289 282 265 262 298 291 272 312 135 312 343 160 298 338 420 296 267 253 244 237 240 222 209 215 209 192 194 189 188 190 176 178 193 176 196 190 182 166 180 201 193
296 298 297 306 305 304 304 294 313 296 293 261 293 313 279 288 93 210 245 317 395 356 133 252 139 229 232 227 223 219 206 211 199 198 195 194 166 184 195 178 189 179 194 177 182 200 189
304 331 353 394 437 428 404 369 350 350 365 355 343 348 325 277 351 287 246 88 384 257 130 269 142 226 232 228 240 221 219 214 209 204 195 177 166 184 193 189 199 172 196 195 179 194 181
406 425 412 402 404 418 428 429 406 390 89 213 368 309 370 365 103 188 237 208 329 358 218 235 261 239 231 226 231 218 228 215 209 212 200 201 189 194 194 202 190 170 183 195 189 197 186
399 401 412 458 437 390 397 402 399 401 383 377 360 390 119 105 368 360 302 137 107 135 319 181 240 246 225 239 238 229 231 214 211 213 208 207 199 201 198 203 173 175 173 193 189 190 177
400 438 457 427 459 404 376 383 389 88 382 329 372 403 366 356 358 190 137 299 312 130 312 310 270 249 231 240 237 235 231 219 215 214 213 209 207 203 204 173 196 177 185 189 194 179 195
459 434 401 411 427 420 378 371 378 364 361 366 347 366 296 348 293 311 122 296 313 377 256 308 287 249 247 243 238 240 231 228 213 204 217 180 208 184 209 176 204 182 189 195 198 187 185
443 397 401 407 414 450 370 365 353 350 380 351 329 356 349 113 317 292 245 172 312 353 284 305 294 254 248 222 245 240 236 170 186 218 226 216 182 215 210 213 191 195 190 192 195 177 180
394 403 404 447 498 464 370 365 367 339 366 337 335 352 336 344 109 124 103 116 304 333 488 176 241 256 248 250 246 169 238 230 225 220 230 218 192 210 185 193 201 207 180 181 192 177 184
Wind_Speed
70 75 68 75 73 72 71 78 78 72 75 71 66 70 74 72 63 54 55 46 51 41 48 48 52 51 54 53 57 54 51 53 55 47 46 46 47 51 44 54 54 47 22 17 10 8 3
72 75 73 82 76 75 74 80 83 79 78 80 73 72 67 67 73 54 61 61 47 55 46 52 44 44 50 50 51 51 50 44 46 46 43 42 44 46 42 44 48 44 13 16 10 5 5
75 76 79 83 88 87 81 80 83 82 81 81 75 70 74 68 68 62 57 64 63 51 51 57 41 47 53 50 51 46 44 44 44 42 38 42 43 39 45 48 45 40 10 10 7 10 11
78 74 82 81 83 87 85 83 87 83 80 83 80 82 69 66 65 63 54 51 57 55 59 45 50 48 42 46 53 46 46 46 44 43 40 40 38 33 45 45 44 37 18 12 15 10 9
84 85 84 85 87 82 78 83 84 87 84 80 78 81 71 66 66 64 56 63 62 53 55 56 55 47 50 45 44 49 36 36 39 37 37 30 35 32 40 39 39 32 31 12 8 5 3
91 91 88 86 89 76 86 84 85 85 85 84 76 83 68 67 64 71 52 53 61 55 51 50 57 43 45 45 32 33 35 36 39 33 35 39 36 33 40 34 38 28 26 21 15 7 7
95 92 92 92 94 94 93 91 90 89 87 82 81 79 74 78 64 62 75 58 47 51 60 49 50 43 51 48 42 36 35 29 29 37 27 27 37 35 28 33 33 35 22 21 11 11 10
94 93 91 96 97 96 96 94 96 94 92 66 87 77 65 75 79 61 66 50 61 55 60 60 46 46 51 43 37 34 39 37 37 29 34 36 34 22 27 27 33 33 20 20 11 10 15
92 94 85 85 87 87 85 100 96 94 92 90 90 86 80 81 63 65 69 60 57 50 57 61 51 56 45 38 40 38 42 30 36 40 40 35 32 24 22 30 27 27 31 17 15 13 12
89 90 90 94 95 97 82 92 88 95 97 95 90 84 80 75 78 74 57 68 63 62 56 54 50 45 50 38 43 36 35 40 30 39 22 36 31 20 30 22 26 24 28 15 16 14 16
97 98 90 91 88 87 87 87 91 90 94 95 94 91 86 80 82 71 67 81 68 60 63 57 63 56 59 33 45 41 32 44 33 25 46 32 32 17 21 21 28 22 26 25 18 16 15
94 97 94 93 97 96 94 97 95 96 93 94 94 95 92 92 84 87 82 79 71 78 69 55 66 47 44 47 50 42 44 25 42 31 18 33 24 21 27 21 24 22 24 25 18 18 13
99 103 103 102 95 97 98 99 99 100 101 100 98 98 94 94 92 92 90 91 85 73 74 64 67 72 74 66 55 57 50 41 44 48 34 22 20 25 27 23 24 21 21 25 25 18 16
97 98 102 105 106 108 109 107 111 105 107 109 106 97 101 98 100 97 97 104 82 68 75 75 72 74 72 77 61 43 55 36 47 31 42 28 27 28 38 22 20 21 24 20 23 26 18
95 98 99 99 102 104 103 101 104 107 110 119 113 113 110 105 108 103 109 106 77 85 86 82 75 73 72 76 65 69 56 53 30 31 38 32 30 34 36 27 32 25 22 21 21 23 25
56 59 61 61 81 83 75 99 101 105 109 109 110 113 108 113 113 117 120 100 84 93 88 84 83 86 83 84 77 66 61 47 53 55 41 30 31 39 28 30 36 22 27 28 23 23 22
55 58 59 61 62 64 65 68 69 69 70 79 84 105 112 114 119 121 122 105 92 91 97 90 90 86 89 89 50 78 63 60 44 58 40 51 43 37 32 26 26 28 30 28 29 26 23
60 63 67 68 69 74 74 68 70 76 80 77 81 77 72 78 120 123 123 101 99 41 95 101 103 97 90 91 84 78 65 64 58 58 64 63 35 34 37 31 32 30 29 30 25 27 26
64 66 68 68 68 67 72 75 73 79 83 86 77 79 80 93 85 87 99 101 100 99 99 42 98 106 102 100 81 79 71 69 69 60 46 55 56 39 32 41 29 34 33 30 28 30 31
62 66 70 71 72 70 75 78 87 89 90 84 85 78 87 85 79 62 33 68 71 100 99 96 90 105 93 94 86 79 74 73 71 53 50 56 53 38 39 37 34 44 30 32 35 30 28
70 73 75 77 80 81 80 84 88 87 80 86 97 77 29 72 69 20 66 58 77 102 96 92 90 91 87 91 84 82 81 75 75 69 67 65 47 41 47 37 41 41 35 34 33 31 32
81 85 86 90 87 84 84 80 92 81 82 94 88 77 83 71 13 44 58 65 61 77 27 92 43 89 89 92 90 90 85 80 79 75 72 68 48 44 52 36 37 39 43 37 35 34 32
85 95 97 92 84 84 86 91 91 88 88 89 96 86 79 79 67 63 61 8 53 60 14 95 40 97 93 91 94 90 86 85 81 77 73 55 50 49 55 47 49 40 58 42 40 35 35
79 62 63 65 60 56 64 67 71 74 9 43 81 70 82 77 22 16 43 31 53 62 39 59 101 98 93 99 96 94 91 89 85 81 78 76 64 67 62 59 40 58 44 46 43 40 36
66 63 64 57 64 60 51 55 61 67 77 81 55 74 22 26 69 60 73 41 9 6 83 29 80 96 97 101 95 93 93 91 85 83 81 80 75 73 61 61 49 48 48 48 40 39 35
60 57 45 41 41 59 53 51 53 22 56 42 52 60 68 68 67 37 10 68 61 19 80 88 100 103 96 98 95 92 91 88 89 84 80 80 79 74 72 47 49 57 55 45 43 48 39
37 32 34 36 41 60 56 56 55 54 57 56 50 55 58 65 55 73 27 67 65 58 45 87 97 101 98 95 94 90 92 94 86 73 81 55 77 55 72 46 59 57 58 55 47 51 37
18 33 33 33 36 59 60 59 55 52 51 61 55 54 59 18 73 77 59 38 64 58 61 87 94 100 96 75 91 88 89 50 64 86 85 85 57 77 68 66 50 63 57 55 54 43 43
11 20 23 27 42 58 64 56 49 52 65 64 60 61 57 58 22 31 27 24 61 60 52 36 75 92 93 94 90 52 88 92 87 85 84 83 56 71 53 56 63 70 51 49 54 41 47
Wind_Direction
249 256 250 255 258 261 259 263 260 260 263 264 266 268 270 271 270 269 270 266 267 267 264 266 269 271 273 277 280 282 286 286 292 304 305 311 311 324 313 326 332 341 337 338 323 284 184
246 249 251 258 257 260 260 262 265 262 260 263 264 268 264 266 273 265 265 266 264 271 267 270 269 271 274 277 281 281 287 297 300 301 306 308 314 325 306 320 332 341 325 336 340 338 323
250 244 246 251 258 258 254 257 260 264 261 261 263 266 267 262 266 266 262 274 273 269 269 272 267 269 274 277 278 283 289 292 298 300 297 306 322 329 335 332 331 343 314 327 16 1 74
249 249 246 245 246 247 250 264 256 260 261 258 259 262 261 260 259 259 252 258 271 263 277 271 272 270 271 275 280 284 284 285 293 298 304 312 322 318 336 332 340 345 346 349 343 18 73
248 249 246 247 248 251 253 249 257 254 257 261 258 259 257 261 254 259 251 258 262 257 262 271 274 275 277 276 279 282 293 297 293 301 309 308 319 314 314 331 327 344 347 336 336 15 100
246 246 246 244 247 247 249 252 252 253 256 255 253 257 262 247 251 266 248 253 261 256 260 271 270 270 273 272 291 297 295 303 305 308 313 317 323 322 334 326 337 345 348 350 319 318 288
245 248 247 245 244 248 247 248 248 252 252 251 253 251 250 260 244 267 261 241 252 244 270 259 262 264 274 277 287 288 301 285 290 306 309 301 322 329 321 343 328 330 347 346 271 232 234
250 251 248 248 247 248 248 246 248 249 251 258 254 249 246 250 256 242 244 247 247 240 258 261 265 264 274 276 279 292 296 295 305 306 317 312 320 323 332 337 344 332 341 343 311 258 273
249 250 248 246 245 245 246 246 247 246 249 248 250 251 250 255 252 249 238 250 251 243 247 260 253 263 265 279 276 285 294 282 306 309 311 313 317 320 309 346 327 320 347 346 339 314 282
250 250 251 250 251 245 245 245 245 247 245 246 247 243 245 249 242 257 253 241 257 243 247 240 251 265 261 263 273 279 287 275 280 299 300 314 313 294 321 313 334 316 335 333 341 339 285
247 246 248 251 249 250 247 245 244 245 244 245 246 245 244 240 250 250 246 250 234 254 267 245 260 270 266 262 278 278 285 282 288 279 301 312 311 289 297 283 343 300 319 336 330 334 331
253 251 252 251 250 249 248 246 247 245 245 244 243 243 243 244 236 243 239 240 257 252 260 266 264 243 250 267 267 276 273 271 277 287 293 302 301 290 316 322 309 297 334 330 338 326 335
255 255 254 254 253 251 249 248 246 246 244 244 241 240 238 237 237 241 248 250 253 243 243 262 247 250 261 263 269 264 272 270 278 279 285 273 274 290 272 312 326 297 292 317 340 334 309
257 256 256 255 253 252 251 250 249 248 246 244 242 247 239 241 239 240 237 237 238 244 246 245 248 247 249 256 264 253 265 251 271 267 285 274 260 291 304 300 303 316 286 294 326 340 321
259 258 258 257 257 255 254 251 251 249 247 245 243 242 241 239 240 242 236 236 239 237 236 240 251 254 254 252 258 260 260 261 250 252 277 253 277 262 298 279 308 275 293 305 297 323 335
258 258 258 258 256 256 255 252 251 250 250 247 244 243 240 239 241 241 238 240 231 228 236 243 245 245 250 252 254 255 259 251 257 264 260 253 266 282 283 286 304 283 276 322 287 295 319
260 258 256 253 252 251 250 249 248 248 248 249 249 245 242 239 239 242 240 237 232 236 233 236 244 247 247 246 245 254 253 251 244 258 247 264 271 259 277 271 279 289 276 280 318 288 291
251 252 249 250 250 246 246 249 247 243 242 245 242 242 244 246 239 240 240 237 235 241 234 232 234 241 244 245 246 250 245 242 244 252 258 261 249 243 273 264 286 266 286 274 309 323 291
256 254 248 247 246 260 246 245 250 244 243 244 243 237 236 238 243 244 242 236 233 232 230 228 233 236 239 240 241 242 237 233 241 249 231 257 265 237 252 271 272 260 287 266 276 322 283
264 267 253 266 252 258 254 246 241 244 245 249 241 241 236 236 237 237 237 227 228 229 228 227 226 232 235 236 237 233 230 230 237 240 232 251 255 236 255 253 258 283 257 260 268 303 311
270 268 259 252 250 244 245 242 242 244 253 246 245 242 226 235 243 202 235 232 221 227 225 222 222 226 228 230 232 228 228 232 233 235 243 246 236 241 259 241 271 267 257 259 268 301 288
275 271 266 264 260 255 254 249 254 247 247 243 245 247 239 231 228 227 225 223 226 216 253 218 213 222 225 226 227 225 228 226 228 231 239 243 234 244 258 241 252 249 274 255 267 293 284
274 272 271 269 260 255 254 251 249 248 245 242 246 242 243 231 232 224 226 203 225 222 250 217 205 219 221 222 222 223 224 224 225 226 235 234 234 245 254 249 263 249 271 274 259 282 273
277 268 265 262 256 247 239 237 228 226 187 236 238 237 236 231 184 200 218 210 219 218 216 222 216 216 217 220 220 221 220 223 223 223 230 235 237 247 249 256 245 245 255 273 269 282 269
276 271 271 253 243 240 233 218 219 218 223 230 223 224 218 195 226 215 211 230 216 299 201 227 214 212 218 218 219 219 217 222 223 223 226 230 238 243 248 253 234 250 252 263 264 269 266
279 274 249 239 230 216 220 210 204 187 199 208 221 215 210 214 216 204 204 207 209 220 201 202 208 210 214 216 218 218 218 222 224 225 227 231 235 241 246 245 247 247 255 259 266 262 271
266 238 240 235 224 203 204 198 195 195 196 195 196 211 203 209 203 197 195 203 207 215 206 200 206 210 213 215 214 216 217 220 223 228 227 236 237 239 244 232 250 248 258 263 267 263 270
256 224 234 225 215 199 195 191 192 191 187 176 192 204 198 200 197 200 202 201 204 210 205 197 203 207 210 215 215 213 217 222 222 225 227 229 230 240 241 245 243 253 254 260 261 265 264
229 221 228 204 190 184 184 183 184 190 175 182 191 187 190 199 196 200 196 202 203 208 214 204 202 206 209 213 214 216 214 217 220 225 227 229 232 236 230 236 242 250 256 260 262 261 270